Mosinee, WI

2:56 AM CDT on September 28, 2016 (GMT -0500)
Central Wisconsin

Weather History for KCWA - December, 2012

Change the Weather History Date:

Thursday, December 13, 2012

  Actual Average Record
Temperature  
Mean Temperature 29 °F -  
Max Temperature 37 °F 28 °F 50 °F (1998)
Min Temperature 21 °F 13 °F -16 °F (2000)
Degree Days  
Heating Degree Days 36    
Moisture  
Dew Point 21 °F    
Average Humidity 70    
Maximum Humidity 86    
Minimum Humidity 48    
Precipitation  
Precipitation 0.00 in - - ()
Sea Level Pressure  
Sea Level Pressure 30.04 in    
Wind  
Wind Speed 10 mph (SSW)    
Max Wind Speed 15 mph    
Max Gust Speed 22 mph    
Visibility 10 miles    
Events      
Averages and records for this station are not official NWS values.
T = Trace of Precipitation, MM = Missing Value Source: NWS Daily Summary

Daily Weather History Graph

Daily Weather History Graph

Search for Another Location

Airport or City:

Trip Planner

Search our weather history database for the weather conditions in past years. The results will help you decide how hot, cold, wet, or windy it might be!

Date:

Astronomy

Dec. 13, 2012 Rise Set
Actual Time 7:28 AM CST 4:18 PM CST
Civil Twilight 6:54 AM CST 4:51 PM CST
Nautical Twilight 6:17 AM CST 5:28 PM CST
Astronomical Twilight 5:41 AM CST 6:04 PM CST
Moon 7:35 AM CST (12/13) 5:01 PM CST (12/13)
Length of Visible Light 9h 57m
Length of Day
8h 50m
New Moon, 0% of the Moon is Illuminated
Dec 13
New Moon
Dec 19
First Quarter
Dec 28
Full
Jan 4
Last Quarter
Jan 11
New

Hourly Weather History & Observations

Time (CST) Temp. Windchill Dew Point Humidity Pressure Visibility Wind Dir Wind Speed Gust Speed Precip Events Conditions
12:15 AM 32.0 °F 22.5 °F 26.6 °F 80% 30.04 in 10.0 mi South 12.7 mph - N/A   Clear
12:35 AM 32.0 °F 22.5 °F 24.8 °F 75% 30.04 in 10.0 mi South 12.7 mph - N/A   Clear
12:55 AM 33.8 °F 24.3 °F 26.6 °F 75% 30.04 in 10.0 mi South 13.8 mph 19.6 mph N/A   Clear
1:15 AM 33.8 °F 23.9 °F 24.8 °F 70% 30.03 in 10.0 mi South 15.0 mph 21.9 mph N/A   Clear
1:55 AM 32.0 °F 22.1 °F 23.0 °F 69% 30.04 in 10.0 mi South 13.8 mph - N/A   Scattered Clouds
2:15 AM 32.0 °F 22.1 °F 23.0 °F 69% 30.04 in 10.0 mi South 13.8 mph - N/A   Clear
2:35 AM 32.0 °F 23.0 °F 23.0 °F 69% 30.03 in 10.0 mi South 11.5 mph - N/A   Clear
2:55 AM 32.0 °F 23.6 °F 23.0 °F 69% 30.03 in 10.0 mi South 10.4 mph - N/A   Clear
3:15 AM 32.0 °F 23.0 °F 23.0 °F 69% 30.03 in 10.0 mi South 11.5 mph - N/A   Clear
3:35 AM 32.0 °F 22.5 °F 23.0 °F 69% 30.03 in 10.0 mi South 12.7 mph - N/A   Clear
3:55 AM 32.0 °F 23.0 °F 23.0 °F 69% 30.02 in 10.0 mi South 11.5 mph - N/A   Clear
4:15 AM 32.0 °F 24.2 °F 23.0 °F 69% 30.01 in 10.0 mi South 9.2 mph - N/A   Clear
4:35 AM 32.0 °F 23.6 °F 23.0 °F 69% 30.01 in 10.0 mi South 10.4 mph - N/A   Clear
5:45 AM 30.2 °F 21.9 °F 21.2 °F 69% 30.01 in 10.0 mi South 9.2 mph - N/A   Clear
6:48 AM 30.2 °F 21.9 °F 21.2 °F 69% 30.01 in 10.0 mi South 9.2 mph - N/A   Clear
7:50 AM 30.2 °F 22.6 °F 21.2 °F 69% 30.01 in 10.0 mi South 8.1 mph - N/A   Clear
8:55 AM 30.2 °F 21.9 °F 21.2 °F 69% 30.01 in 10.0 mi South 9.2 mph - N/A   Clear
9:45 AM 28.4 °F 19.7 °F 21.2 °F 74% 30.02 in 10.0 mi South 9.2 mph - N/A   Clear
10:50 AM 33.8 °F 27.0 °F 21.2 °F 60% 30.01 in 10.0 mi SSW 8.1 mph - N/A   Clear
11:45 AM 33.8 °F 27.7 °F 21.2 °F 60% 29.99 in 10.0 mi SSW 6.9 mph - N/A   Clear
12:50 PM 35.6 °F 29.2 °F 21.2 °F 56% 29.99 in 10.0 mi SW 8.1 mph - N/A   Clear
1:55 PM 37.4 °F 30.8 °F 21.2 °F 52% 29.99 in 10.0 mi WSW 9.2 mph - N/A   Clear
2:45 PM 37.4 °F 31.4 °F 19.4 °F 48% 29.99 in 10.0 mi WSW 8.1 mph - N/A   Clear
3:45 PM 35.6 °F 29.9 °F 21.2 °F 56% 30.01 in 10.0 mi WSW 6.9 mph - N/A   Clear
7:45 PM 28.4 °F - 19.4 °F 69% 30.06 in 10.0 mi Calm Calm - N/A   Clear
8:45 PM 26.6 °F - 19.4 °F 74% 30.07 in 10.0 mi Calm Calm - N/A   Clear
9:15 PM 28.4 °F 23.3 °F 19.4 °F 69% 30.07 in 10.0 mi NW 4.6 mph - N/A   Clear
9:35 PM 26.6 °F 22.6 °F 19.4 °F 74% 30.08 in 10.0 mi WNW 3.5 mph - N/A   Clear
9:45 PM 21.2 °F - 15.8 °F 80% 30.08 in 10.0 mi Calm Calm - N/A   Clear
9:55 PM 23.0 °F - 19.4 °F 86% 30.08 in 10.0 mi Calm Calm - N/A   Clear
10:15 PM 23.0 °F - 17.6 °F 80% 30.09 in 10.0 mi Calm Calm - N/A   Clear
10:35 PM 26.6 °F - 19.4 °F 74% 30.09 in 10.0 mi Calm Calm - N/A   Clear
10:55 PM 23.0 °F - 17.6 °F 80% 30.10 in 10.0 mi Calm Calm - N/A   Clear
11:15 PM 23.0 °F - 19.4 °F 86% 30.09 in 10.0 mi Calm Calm - N/A   Clear